• In Netherlands
  • List of Countries
  • For 7 days
  • Water Temperature
  • Satellite Maps
  • Weather Map
  • Weather Widgets
  • user-avatar
    Login

    Hourly Weather Sumgayit

    Today, 27 April, Thursday

    Time Temperature Precipitation Wind Pressure Humidity
    00:00 +9°C° 0 mm 1 mps 753 mmHg 60%
    01:00 +8°C° 0 mm 1 mps 752 mmHg 60%
    02:00 +7°C° 0 mm 2 mps 752 mmHg 60%
    03:00 +7°C° 0 mm 2 mps 752 mmHg 60%
    04:00 +8°C° 0 mm 2 mps 752 mmHg 58%
    05:00 +8°C° 0 mm 2 mps 752 mmHg 57%
    06:00 +9°C° 0 mm 2 mps 752 mmHg 55%
    07:00 +10°C° 0 mm 2 mps 752 mmHg 50%
    08:00 +12°C° 0 mm 2 mps 752 mmHg 46%
    09:00 +14°C° 0 mm 2 mps 752 mmHg 41%
    10:00 +14°C° 0 mm 3 mps 752 mmHg 41%
    11:00 +16°C° 0 mm 3 mps 752 mmHg 40%
    12:00 +17°C° 0 mm 3 mps 752 mmHg 39%
    13:00 +17°C° 0 mm 4 mps 751 mmHg 39%
    14:00 +17°C° 0 mm 4 mps 751 mmHg 38%
    15:00 +16°C° 0 mm 5 mps 751 mmHg 37%
    16:00 +17°C° 0 mm 4 mps 750 mmHg 40%
    17:00 +15°C° 0 mm 4 mps 750 mmHg 42%
    18:00 +14°C° 0 mm 3 mps 750 mmHg 44%
    19:00 +13°C° 0 mm 3 mps 750 mmHg 47%
    20:00 +13°C° 0 mm 2 mps 750 mmHg 50%
    21:00 +12°C° 0 mm 1 mps 750 mmHg 52%
    22:00 +12°C° 0 mm 1 mps 750 mmHg 54%
    23:00 +11°C° 0 mm 1 mps 750 mmHg 56%

    Tomorrow, 28 April, Friday

    Time Temperature Precipitation Wind Pressure Humidity
    00:00 +11°C° 0 mm 1 mps 750 mmHg 58%
    01:00 +11°C° 0 mm 1 mps 750 mmHg 60%
    02:00 +11°C° 0 mm 1 mps 749 mmHg 62%
    03:00 +11°C° 0 mm 1 mps 749 mmHg 64%
    04:00 +11°C° 0 mm 1 mps 749 mmHg 62%
    05:00 +12°C° 0 mm 2 mps 749 mmHg 61%
    06:00 +12°C° 0 mm 2 mps 749 mmHg 60%
    07:00 +14°C° 0 mm 2 mps 749 mmHg 53%
    08:00 +16°C° 0 mm 3 mps 749 mmHg 47%
    09:00 +17°C° 0 mm 4 mps 749 mmHg 40%
    10:00 +18°C° 0 mm 4 mps 748 mmHg 38%
    11:00 +17°C° 0 mm 5 mps 748 mmHg 36%
    12:00 +19°C° 0 mm 5 mps 747 mmHg 34%
    13:00 +19°C° 0 mm 5 mps 747 mmHg 34%
    14:00 +19°C° 0 mm 5 mps 746 mmHg 34%
    15:00 +19°C° 0 mm 5 mps 746 mmHg 35%
    16:00 +18°C° 0 mm 4 mps 746 mmHg 37%
    17:00 +17°C° 0 mm 4 mps 745 mmHg 40%
    18:00 +16°C° 0 mm 3 mps 745 mmHg 42%
    19:00 +14°C° 0 mm 3 mps 745 mmHg 44%
    20:00 +15°C° 0 mm 2 mps 745 mmHg 47%
    21:00 +14°C° 0 mm 1 mps 745 mmHg 49%
    22:00 +13°C° 0 mm 1 mps 745 mmHg 50%
    23:00 +13°C° 0 mm 1 mps 744 mmHg 50%

    Day after tomorrow, 29 April, Saturday

    Time Temperature Precipitation Wind Pressure Humidity
    00:00 +13°C° 0 mm 1 mps 744 mmHg 51%
    01:00 +13°C° 0 mm 1 mps 744 mmHg 52%
    02:00 +12°C° 0 mm 1 mps 743 mmHg 53%
    03:00 +12°C° 0 mm 1 mps 743 mmHg 54%
    04:00 +13°C° 0 mm 1 mps 743 mmHg 53%
    05:00 +14°C° 0 mm 1 mps 743 mmHg 52%
    06:00 +15°C° 0 mm 1 mps 743 mmHg 50%
    07:00 +16°C° 0.1 mm 2 mps 743 mmHg 46%
    08:00 +18°C° 0.1 mm 2 mps 743 mmHg 41%
    09:00 +19°C° 0.1 mm 2 mps 743 mmHg 36%
    10:00 +20°C° 0.1 mm 3 mps 743 mmHg 35%
    11:00 +21°C° 0.1 mm 4 mps 743 mmHg 35%
    12:00 +22°C° 0.1 mm 4 mps 742 mmHg 34%
    13:00 +21°C° 0 mm 4 mps 742 mmHg 35%
    14:00 +21°C° 0 mm 5 mps 741 mmHg 37%
    15:00 +21°C° 0 mm 5 mps 741 mmHg 38%
    16:00 +20°C° 0 mm 4 mps 741 mmHg 42%
    17:00 +19°C° 0 mm 4 mps 741 mmHg 45%
    18:00 +18°C° 0 mm 3 mps 741 mmHg 49%
    19:00 +17°C° 0 mm 2 mps 741 mmHg 52%
    20:00 +16°C° 0 mm 2 mps 741 mmHg 55%
    21:00 +15°C° 0 mm 1 mps 741 mmHg 57%
    22:00 +15°C° 0 mm 1 mps 741 mmHg 58%
    23:00 +15°C° 0 mm 1 mps 741 mmHg 58%

    30 April, Sunday

    Time Temperature Precipitation Wind Pressure Humidity
    00:00 +15°C° 0 mm 1 mps 741 mmHg 59%
    01:00 +14°C° 0 mm 1 mps 740 mmHg 60%
    02:00 +14°C° 0 mm 1 mps 740 mmHg 61%
    03:00 +14°C° 0 mm 1 mps 740 mmHg 62%
    04:00 +14°C° 0 mm 1 mps 740 mmHg 60%
    05:00 +15°C° 0 mm 1 mps 740 mmHg 57%
    06:00 +16°C° 0 mm 1 mps 740 mmHg 54%
    07:00 +19°C° 0 mm 1 mps 740 mmHg 49%
    08:00 +19°C° 0 mm 2 mps 741 mmHg 44%
    09:00 +21°C° 0 mm 2 mps 741 mmHg 38%
    10:00 +23°C° 0 mm 2 mps 741 mmHg 36%
    11:00 +24°C° 0 mm 3 mps 740 mmHg 34%
    12:00 +25°C° 0 mm 3 mps 740 mmHg 32%
    13:00 +25°C° 0 mm 4 mps 740 mmHg 31%
    14:00 +25°C° 0 mm 4 mps 740 mmHg 31%
    15:00 +25°C° 0 mm 5 mps 739 mmHg 30%
    16:00 +23°C° 0 mm 4 mps 739 mmHg 32%
    17:00 +22°C° 0 mm 3 mps 739 mmHg 35%
    18:00 +20°C° 0 mm 2 mps 739 mmHg 37%
    19:00 +19°C° 0 mm 2 mps 740 mmHg 39%
    20:00 +18°C° 0 mm 2 mps 740 mmHg 42%
    21:00 +18°C° 0 mm 1 mps 740 mmHg 44%
    22:00 +16°C° 0 mm 1 mps 740 mmHg 45%
    23:00 +16°C° 0 mm 2 mps 740 mmHg 46%

    1 May, Monday

    Time Temperature Precipitation Wind Pressure Humidity
    00:00 +16°C° 0 mm 2 mps 740 mmHg 48%
    01:00 +15°C° 0 mm 2 mps 740 mmHg 49%
    02:00 +15°C° 0 mm 2 mps 740 mmHg 51%
    03:00 +14°C° 0 mm 2 mps 740 mmHg 52%
    04:00 +15°C° 0 mm 2 mps 740 mmHg 52%
    05:00 +16°C° 0 mm 2 mps 740 mmHg 51%
    06:00 +16°C° 0 mm 2 mps 740 mmHg 50%
    07:00 +18°C° 0 mm 2 mps 741 mmHg 45%
    08:00 +19°C° 0 mm 2 mps 741 mmHg 41%
    09:00 +21°C° 0 mm 2 mps 741 mmHg 37%
    10:00 +23°C° 0 mm 2 mps 741 mmHg 35%
    11:00 +24°C° 0 mm 2 mps 741 mmHg 33%
    12:00 +25°C° 0 mm 3 mps 741 mmHg 31%
    13:00 +25°C° 0 mm 3 mps 741 mmHg 31%
    14:00 +25°C° 0 mm 3 mps 741 mmHg 30%
    15:00 +25°C° 0 mm 4 mps 741 mmHg 30%
    16:00 +24°C° 0 mm 3 mps 741 mmHg 32%
    17:00 +22°C° 0 mm 3 mps 741 mmHg 35%
    18:00 +21°C° 0 mm 2 mps 741 mmHg 37%
    19:00 +20°C° 0 mm 2 mps 741 mmHg 39%
    20:00 +19°C° 0 mm 2 mps 741 mmHg 41%
    21:00 +18°C° 0 mm 2 mps 741 mmHg 43%
    22:00 +17°C° 0 mm 2 mps 741 mmHg 44%
    23:00 +17°C° 0 mm 2 mps 741 mmHg 46%

    2 May, Tuesday

    Time Temperature Precipitation Wind Pressure Humidity
    00:00 +17°C° 0 mm 2 mps 741 mmHg 47%
    01:00 +16°C° 0 mm 2 mps 741 mmHg 48%
    02:00 +16°C° 0 mm 2 mps 741 mmHg 49%
    03:00 +16°C° 0 mm 2 mps 741 mmHg 50%
    04:00 +16°C° 0 mm 2 mps 741 mmHg 48%
    05:00 +17°C° 0 mm 2 mps 741 mmHg 46%
    06:00 +19°C° 0 mm 1 mps 742 mmHg 44%
    07:00 +20°C° 0 mm 1 mps 742 mmHg 39%
    08:00 +22°C° 0 mm 1 mps 742 mmHg 33%
    09:00 +24°C° 0 mm 1 mps 742 mmHg 27%
    10:00 +24°C° 0 mm 2 mps 742 mmHg 26%
    11:00 +25°C° 0 mm 3 mps 742 mmHg 25%
    12:00 +26°C° 0 mm 4 mps 742 mmHg 24%
    13:00 +26°C° 0 mm 4 mps 741 mmHg 25%
    14:00 +26°C° 0 mm 5 mps 741 mmHg 26%
    15:00 +25°C° 0 mm 5 mps 741 mmHg 27%
    16:00 +23°C° 0 mm 4 mps 741 mmHg 28%
    17:00 +22°C° 0 mm 4 mps 741 mmHg 29%
    18:00 +21°C° 0 mm 3 mps 740 mmHg 31%
    19:00 +21°C° 0 mm 3 mps 740 mmHg 31%
    20:00 +20°C° 0 mm 3 mps 741 mmHg 31%
    21:00 +19°C° 0 mm 2 mps 741 mmHg 30%
    22:00 +19°C° 0 mm 2 mps 741 mmHg 31%
    23:00 +19°C° 0 mm 2 mps 740 mmHg 32%
    Show more